This demonstration page uses our WeatherBlox Daily Observations layout. Learn more.

Left ArrowRight Arrow

Hourly Observations for January 13, 2018

Temp ( °F °C ) Dew Point ( °F °C ) Humidity (%) Winds ( mph kmh ) Pressure ( in mb ) Visibility ( mi km ) Precip ( " mm )
12:15 am 00:15 Partly Cloudy 18 -8 14 -10 86 86 N 15 24 30.27 1025 10 16 N/A
12:35 am 00:35 Clear 18 -8 12 -11 79 79 N 15 24 30.27 1025 10 16 N/A
12:55 am 00:55 Partly Cloudy 16 -9 12 -11 86 86 N 13 20 30.27 1025 10 16 N/A
1:15 am 01:15 Partly Cloudy 16 -9 10 -12 79 79 N 17 28 30.30 1026 10 16 N/A
1:35 am 01:35 Clear 16 -9 10 -12 79 79 N 18 30 30.30 1026 10 16 N/A
1:55 am 01:55 Clear 14 -10 9 -13 79 79 N 13 20 30.30 1026 10 16 N/A
2:15 am 02:15 Clear 14 -10 10 -12 85 85 N 15 24 30.33 1027 10 16 N/A
2:35 am 02:35 Clear 14 -10 9 -13 79 79 N 16 26 30.33 1027 10 16 N/A
2:55 am 02:55 Clear 14 -10 9 -13 79 79 N 16 26 30.33 1027 10 16 N/A
3:15 am 03:15 Clear 12 -11 9 -13 85 85 N 15 24 30.39 1029 10 16 N/A
3:35 am 03:35 Clear 12 -11 9 -13 85 85 N 15 24 30.39 1029 10 16 N/A
3:55 am 03:55 Clear 12 -11 9 -13 85 85 N 14 22 30.39 1029 10 16 N/A
4:15 am 04:15 Clear 12 -11 9 -13 85 85 N 15 24 30.39 1029 10 16 N/A
4:35 am 04:35 Clear 12 -11 9 -13 85 85 N 16 26 30.42 1030 10 16 N/A
4:55 am 04:55 Clear 12 -11 9 -13 85 85 N 12 19 30.42 1030 10 16 N/A
5:15 am 05:15 Clear 12 -11 9 -13 85 85 N 13 20 30.42 1030 10 16 N/A
5:35 am 05:35 Clear 12 -11 9 -13 85 85 N 9 15 30.45 1031 10 16 N/A
5:55 am 05:55 Clear 12 -11 9 -13 85 85 N 10 17 30.45 1031 10 16 N/A
6:15 am 06:15 Clear 12 -11 9 -13 85 85 N 10 17 30.48 1032 10 16 N/A
6:35 am 06:35 Clear 12 -11 9 -13 85 85 NNE 17 28 30.48 1032 10 16 N/A
6:55 am 06:55 Clear 12 -11 9 -13 85 85 NNE 12 19 30.48 1032 10 16 N/A
7:15 am 07:15 Clear 12 -11 9 -13 85 85 NNE 10 17 30.50 1033 10 16 N/A
7:35 am 07:35 Clear 10 -12 9 -13 92 92 NNE 8 13 30.50 1033 10 16 N/A
7:55 am 07:55 Clear 10 -12 9 -13 92 92 NNE 6 9 30.50 1033 10 16 N/A
8:15 am 08:15 Sunny 10 -12 9 -13 92 92 N 6 9 30.50 1033 10 16 N/A
8:35 am 08:35 Sunny 10 -12 9 -13 92 92 N 5 7 30.53 1034 10 16 N/A
8:55 am 08:55 Sunny 10 -12 9 -13 92 92 N 3 6 30.53 1034 10 16 N/A
9:15 am 09:15 Partly Cloudy 12 -11 10 -12 92 92 N N/A 30.53 1034 10 16 N/A
9:35 am 09:35 Partly Cloudy 14 -10 10 -12 85 85 N 3 6 30.56 1035 10 16 N/A
9:55 am 09:55 Partly Cloudy 14 -10 10 -12 85 85 N 5 7 30.56 1035 10 16 N/A
10:15 am 10:15 Partly Cloudy 16 -9 10 -12 79 79 NNW 3 6 30.59 1036 10 16 N/A
10:35 am 10:35 Cloudy 16 -9 12 -11 86 86 NW 5 7 30.59 1036 10 16 N/A
10:55 am 10:55 Cloudy 16 -9 12 -11 86 86 NW 7 11 30.62 1037 10 16 N/A
11:15 am 11:15 Cloudy 18 -8 12 -11 79 79 NNW 8 13 30.59 1036 10 16 N/A
11:36 am 11:36 Partly Cloudy 18 -8 12 -11 79 79 N 8 13 30.59 1036 10 16 N/A
11:55 am 11:55 Sunny 18 -8 12 -11 79 79 N 8 13 30.59 1036 10 16 N/A
12:15 pm 12:15 Mostly Cloudy 19 -7 14 -10 79 79 NNW 10 17 30.59 1036 10 16 N/A
12:35 pm 12:35 Mostly Cloudy 19 -7 14 -10 79 79 N 9 15 30.56 1035 10 16 N/A
12:55 pm 12:55 Mostly Cloudy 19 -7 14 -10 79 79 N 8 13 30.56 1035 10 16 N/A
1:15 pm 13:15 Cloudy 19 -7 14 -10 79 79 N 7 11 30.56 1035 10 16 N/A
1:35 pm 13:35 Cloudy 18 -8 16 -9 93 93 NW 8 13 30.56 1035 5 8 N/A
1:55 pm 13:55 Cloudy 19 -7 16 -9 86 86 NW 8 13 30.56 1035 10 16 N/A
2:15 pm 14:15 Cloudy 19 -7 16 -9 86 86 NNW 6 9 30.56 1035 10 16 N/A
2:35 pm 14:35 Cloudy 19 -7 14 -10 79 79 NNW 12 19 30.56 1035 10 16 N/A
2:55 pm 14:55 Cloudy 21 -6 16 -9 80 80 NW 8 13 30.56 1035 10 16 N/A
3:15 pm 15:15 Cloudy 19 -7 14 -10 79 79 WNW 9 15 30.56 1035 10 16 N/A
3:35 pm 15:35 Cloudy 18 -8 14 -10 86 86 NW 9 15 30.59 1036 10 16 N/A
3:55 pm 15:55 Cloudy 18 -8 14 -10 86 86 NNW 10 17 30.59 1036 10 16 N/A
4:15 pm 16:15 Partly Cloudy 18 -8 14 -10 86 86 NNW 9 15 30.59 1036 10 16 N/A
4:35 pm 16:35 Partly Cloudy 18 -8 14 -10 86 86 NNW 7 11 30.59 1036 10 16 N/A
4:55 pm 16:55 Partly Cloudy 18 -8 14 -10 86 86 NNW 7 11 30.59 1036 10 16 N/A
5:15 pm 17:15 Partly Cloudy 16 -9 12 -11 86 86 NNW 8 13 30.65 1038 10 16 N/A
5:35 pm 17:35 Partly Cloudy 16 -9 12 -11 86 86 NW 7 11 30.65 1038 10 16 N/A
5:55 pm 17:55 Mostly Cloudy 14 -10 12 -11 92 92 NW 7 11 30.65 1038 10 16 N/A
6:15 pm 18:15 Mostly Cloudy 14 -10 12 -11 92 92 NNW 7 11 30.65 1038 10 16 N/A
6:35 pm 18:35 Partly Cloudy 12 -11 10 -12 92 92 NW 5 7 30.68 1039 10 16 N/A
6:55 pm 18:55 Clear 12 -11 10 -12 92 92 NW 5 7 30.68 1039 10 16 N/A
7:15 pm 19:15 Clear 12 -11 9 -13 85 85 NW 5 7 30.68 1039 10 16 N/A
7:35 pm 19:35 Clear 10 -12 9 -13 92 92 NW 5 7 30.68 1039 10 16 N/A
7:55 pm 19:55 Clear 10 -12 9 -13 92 92 NW 5 7 30.68 1039 10 16 N/A
8:15 pm 20:15 Clear 10 -12 9 -13 92 92 NW 5 7 30.68 1039 10 16 N/A
8:35 pm 20:35 Clear 10 -12 9 -13 92 92 NW 5 7 30.68 1039 10 16 N/A
8:55 pm 20:55 Clear 10 -12 9 -13 92 92 N N/A 30.68 1039 10 16 N/A
9:15 pm 21:15 Clear 9 -13 7 -14 92 92 N N/A 30.68 1039 10 16 N/A
9:35 pm 21:35 Clear 9 -13 9 -13 100 100 N N/A 30.71 1040 10 16 N/A
9:55 pm 21:55 Clear 9 -13 9 -13 100 100 N N/A 30.71 1040 10 16 N/A
10:16 pm 22:16 Clear 9 -13 9 -13 100 100 N N/A 30.71 1040 10 16 N/A
10:35 pm 22:35 Clear 9 -13 7 -14 92 92 NW 3 6 30.71 1040 10 16 N/A
10:55 pm 22:55 Clear 9 -13 7 -14 92 92 NW 3 6 30.71 1040 10 16 N/A
11:15 pm 23:15 Clear 9 -13 5 -15 85 85 N N/A 30.71 1040 10 16 N/A
11:35 pm 23:35 Clear 7 -14 7 -14 100 100 N N/A 30.71 1040 10 16 N/A
11:55 pm 23:55 Clear 7 -14 5 -15 92 92 N N/A 30.71 1040 10 16 N/A

Powered by AerisWeather